Regional Weather Roundup
Issued by NWS

Home | Current Version | Previous Version | Graphics & Text | Print | Product List | Glossary Off
Versions: 1 2 3 4 5 6 7 8 9 10 11 12 13 14 15 16 17 18 19 20 21 22 23 24 25 26 27 28 29 30 31 32 33 34 35 36 37 38 39 40 41 42 43 44 45 46 47 48 49 50

000
ASUS43 KTOP 010008
RWRKS

WEATHER ROUNDUP FOR KANSAS
NATIONAL WEATHER SERVICE GOODLAND KS
600 PM CST SAT FEB 28 2015

NOTE:  "FAIR" INDICATES FEW OR NO CLOUDS BELOW 12,000 FEET WITH NO
SIGNIFICANT WEATHER AND/OR OBSTRUCTIONS TO VISIBILITY.

KSZ001>006-013>018-027>032-041>047-010100-
NORTHWEST KANSAS

CITY           SKY/WX    TMP DP  RH WIND       PRES   REMARKS
GOODLAND       CLOUDY    19  13  77 SE7       30.08S
6HR MIN TEMP:  16; 6HR MAX TEMP:  19; 6HR PCP: TRACE;

HAYS           CLOUDY    21   9  58 SE8       30.24S
HILL CITY      CLOUDY    21  13  71 S5        30.22S
6HR MIN TEMP:  18; 6HR MAX TEMP:  21; 6HR PCP: TRACE;

RUSSELL        CLOUDY    20  15  81 SE8       30.25R
6HR MIN TEMP:  17; 6HR MAX TEMP:  21; 6HR PCP: TRACE;

$$

KSZ061>065-074>080-084>089-010100-
SOUTHWEST KANSAS

CITY           SKY/WX    TMP DP  RH WIND       PRES   REMARKS
DODGE CITY     CLOUDY    20  14  77 SE10      30.18R WCI   9
6HR MIN TEMP:  16; 6HR MAX TEMP:  21;

ELKHART          N/A     23  16  75 SE14        N/A  WCI  11
GARDEN CITY    CLOUDY    20  15  81 SE9       30.13S
6HR MIN TEMP:  18; 6HR MAX TEMP:  20;

GREAT BEND     CLOUDY    19  12  73 SE8       30.26R
LIBERAL        CLOUDY    23  16  74 SE10      30.14R WCI  12
PRATT          MOCLDY    21  18  86 SE6       30.25S
$$

KSZ066>073-081>083-090>101-010100-
SOUTHEAST KANSAS

CITY           SKY/WX    TMP DP  RH WIND       PRES   REMARKS
CHANUTE        LGT SNOW  23  20  88 SE6       30.35F FOG
6HR MIN TEMP:  22; 6HR MAX TEMP:  24; 6HR PCP:  0.15;

COFFEYVILLE    LGT SNOW  25  22  88 E5        30.37S FOG
6HR MIN TEMP:  23; 6HR MAX TEMP:  25; 6HR PCP:  0.11;

HUTCHINSON     CLOUDY    22  15  75 SE6       30.29F
6HR MIN TEMP:  19; 6HR MAX TEMP:  22; 6HR PCP: TRACE;

MEDICINE LODGE   N/A     21  17  84 SE5       30.27S
NEWTON         CLOUDY    21  12  68 E5        30.31S
PARSONS        MIX PCPN  25  22  88 CALM      30.37S FOG
6HR MIN TEMP:  23; 6HR MAX TEMP:  26; 6HR PCP: TRACE;

WICHITA INTL   CLOUDY    23  17  78 SE5       30.30F
6HR MIN TEMP:  20; 6HR MAX TEMP:  23; 6HR PCP:  0.03;

WICHITA JABRA  CLOUDY    22  17  81 E5        30.30F
6HR MIN TEMP:  19; 6HR MAX TEMP:  22; 6HR PCP: TRACE;

WICHITA MCCONL CLOUDY    22  18  84 SE5       30.30F
WINFIELD       CLOUDY    24  21  88 SE6       30.33S
6HR MIN TEMP:  21; 6HR MAX TEMP:  25; 6HR PCP:  0.03;

$$

KSZ007>012-019>026-033>040-048>060-102>105-010100-
NORTHEAST KANSAS

CITY           SKY/WX    TMP DP  RH WIND       PRES   REMARKS
CONCORDIA      CLOUDY    21  16  81 S7        30.31R
6HR MIN TEMP:  18; 6HR MAX TEMP:  21; 6HR PCP:  0.02;

EMPORIA        CLOUDY    22  18  85 E6        30.34R
6HR MIN TEMP:  20; 6HR MAX TEMP:  23; 6HR PCP:  0.04;

LAWRENCE       CLOUDY    23  18  81 SE6       30.38F
6HR MIN TEMP:  21; 6HR MAX TEMP:  24; 6HR PCP:  0.02;

MANHATTAN      CLOUDY    24  18  77 S6        30.35S
6HR MIN TEMP:  21; 6HR MAX TEMP:  24; 6HR PCP:  0.01;

MARYSVILLE     FLURRIES  23  19  86 SE3       30.34S
OLATHE IND     LGT SNOW  22  18  85 E6        30.37S FOG
6HR MIN TEMP:  20; 6HR MAX TEMP:  22; 6HR PCP:  0.06;

OLATHE EXE     LGT SNOW  22  19  89 E5        30.35F FOG
6HR MIN TEMP:  20; 6HR MAX TEMP:  23; 6HR PCP:  0.05;

SALINA         CLOUDY    23  15  71 SE7       30.33S
6HR MIN TEMP:  20; 6HR MAX TEMP:  23; 6HR PCP: TRACE;

TOPEKA BILLARD CLOUDY    24  18  77 SE6       30.38S
6HR MIN TEMP:  21; 6HR MAX TEMP:  25; 6HR PCP:  0.06;

TOPEKA FORBES  CLOUDY    24  18  77 SE5       30.36S
6HR MIN TEMP:  22; 6HR MAX TEMP:  25; 6HR PCP:  0.03;

$$



USA.gov is the U.S. government's official web portal to all federal, state and local government web resources and services.